User: anonymous
Location: Deer Path Park
(40.5570°N, 74.8450°W)
Time: 16:01:17
(UTC-04:00)
Language:

Iridium 49 - Orbit

View from above orbital plane
View from above orbital plane
View from above satellite
View from above satellite

Ground track
Ground track

The orbit data is extracted from the following two-line orbital elements,

1 25108U 97082E   14263.28211443  .00000326  00000-0  10932-3 0  9251
2 25108 086.3954 313.8125 0002375 106.8444 297.3990 14.34219826876910
Epoch (UTC): 20 September 2014 06:46:14
Eccentricity: 0.0002375
inclination: 86.3954°
perigee height: 776 km
apogee height: 779 km
right ascension of ascending node: 313.8125°
argument of perigee: 106.8444°
revolutions per day: 14.34219826
mean anomaly at epoch: 297.3990°
orbit number at epoch: 87691

The dashed part of the orbit path shows where the satellite is in the earth's shadow,  

DLR